NOAA 16 DEB, 41126

Orbit data source: Space-Track

NOAA 16 DEB, 41126 is space debris in SSO originally from a launch on Thu, 21 Sep 2000 UTC launched from the Air Force Western Test Range (AFWTR). Debris objects in space refer to the collection of defunct objects orbiting the Earth. Examples of debris include non-operational satellites, rocket bodies, and fragments generated from explosions, collisions, or faulty payload assembly.

Loading next visibility...
Identifier
41126, 2000-055BH
Orbit
SSO
Country
Flag of USUS
Related business
Manufacturer
Unknown
Mission
Spacecraft
Bus & Motor
Unknown
Mass
Unknown
Launch date (UTC)
2000-09-21 (26 years ago)
Launch vehicle
Unknown
Launch site
Air Force Western Test Range (AFWTR)
Object type
Payload
Rocket body
Debris
Shape & HBR
Unknown shape, 0.1 m
Radar Cross Section
Medium (>0.1 m² and <1 m²)

Expand to show TLE details & history
Last TLE update: 3 days ago

TLE from 3 days ago
0 NOAA 16 DEB
1 41126U 00055BH  26170.23018562  .00002262  00000-0  11899-2 0  9999
2 41126  98.7653 172.9243 0065506 352.9554   7.0693 14.13951530539629
Epoch: 2026-06-19T05:31Z
TLE epoch observation values (Epoch: 2026-06-19T05:31:28.037Z)
Latitude
0.00006°
Longitude
-177.40468°
Altitude
801.819 km
Speed
7.477 km/s
True Right ascension
11h 31m 41s
True Declination
0° 00' 00"
Sunlit
Object was in daylight at epoch
Visualization orbit readout
Latitude
Unknown
Longitude
Unknown
Altitude
Unknown
Speed
Unknown
Apparent Right ascension
Unknown
Apparent Declination
Unknown
Sunlit
N/A
Visualization observer readout
Local Sidereal Time
21:42:01
Azimuth
Unknown
Elevation
Unknown
Doppler factor
Unknown
Orbital elements
Apogee altitude
890.353 km
Perigee altitude
795.747 km
Semi-major axis
7,221.187 km
Eccentricity
0.00655
Inclination
98.7653°
RAAN
172.9243°
Arg. of periapsis
352.9554°
True anomaly
7.16244°
Mean anomaly
7.0693°
Eccentric anomaly
7.11579°
Mean motion
3.53696 °/min
Orbital period
101.78 mins
BSTAR
0.0011899
Loading maneuver chart data...
Computing Atmospheric mass density...
Loading historical data...
Loading historical data...
Loading historical data...
Loading historical data...
Loading historical data...
Loading historical data...
Loading historical data...

Documentation

Showing up to 5 results
|